www.pogodaiklimat.ru

Погода и климат >> Архив погоды >> Беларусь >> Барановичи


АРХИВ ПОГОДЫ в Барановичах

Время (UTC), дата Ветер
(напр.,м/с)
 
Видим.   Явления Облачность Т
(С)
Тd
(С)
f
(%)
Тe
(С)
Тes
(С)
Комфортность P
(гПа)
Po
(гПа)
Тmin
(С)
Tmax
(С)
R
(мм)
R24
(мм)
S
(см)
21 12.06 ЮВ 2 10 км 3/0
[Ci fib]
+25.6 +15.6 54 +29 +29 душно 1015.2 993.3
00 13.06 штиль 0 10 км 3/0
[Ci fib]
+22.2 +16.1 68 +26 +26 душно 1016.3 994.1
03 13.06 штиль 0 8000 м дымка ясно +19.9 +16.9 83 +22 +23 комфорт 1016.3 993.9
06 13.06 Ю 1 10 км ясно +26.9 +17.4 56 +31 +39 душно 1016.4 994.6 +18.2
09 13.06 ЮВ 4 10 км 3/3 1000 м
[Cu med, cong]
+30.9 +15.3 39 +33 +41 душно 1016.7 995.2
12 13.06 Ю 4 10 км 6/6 1000 м
[Cu med, cong]
+31.9 +14.3 34 +33 +37 жарко 1015.9 994.5
15 13.06 ЮВ 5 10 км 6/4 1000 м
[Cu med, cong Ci fib]
+31.9 +11.9 29 +32 +34 жарко 1014.6 993.3
18 13.06 В 3 10 км 8/4 1000 м
[Sc Ci fib]
+28.2 +16.5 49 +32 +32 душно 1015.8 994.1 +32.8
21 13.06 ЮВ 3 10 км 3/0
[Ci fib]
+24.0 +16.6 63 +27 +27 жарко 1017.0 994.9
00 14.06 ЮВ 2 10 км ясно +21.1 +16.9 77 +25 +25 комфорт 1017.3 994.9
03 14.06 Ю 1 8000 м дымка 3/0
[Ci fib]
+20.0 +16.8 82 +24 +24 комфорт 1017.7 995.2
06 14.06 З 1 10 км 3/0
[Ci fib]
+25.7 +17.1 59 +30 +37 душно 1017.6 995.6 +19.4
09 14.06 З 3 15 км 3/3 1000 м
[Cu hum]
+29.8 +14.6 40 +32 +41 душно 1017.0 995.4
12 14.06 СЗ 5 15 км 6/5 600 м
[Cb calv Ac und]
+31.0 +15.1 38 +33 +37 душно 1016.5 995.0
15 14.06 СЗ 4
{11}
17 км 8/3 600 м
[Cb calv Ac und Ci fib]
+29.3 +15.2 42 +32 +33 душно 1016.9 995.3
18 14.06 СЗ 3 12 км 8/0
[Ac und Cs]
+26.2 +17.2 58 +30 +30 душно 1017.4 995.5 +32.1
21 14.06 штиль 0 10 км 3/0
[Ci fib]
+20.4 +16.4 78 +23 +23 комфорт 1019.1 996.6
00 15.06 СЗ 2 10 км ясно +17.3 +15.7 90 +18 +18 тепло 1019.2 996.5
03 15.06 С 2 10 км 3/0
[Ci fib]
+16.5 +15.4 93 +17 +17 тепло 1019.2 996.4
06 15.06 СВ 2 10 км 9/4 1000 м
[Cu med, cong Ci fib]
+22.7 +17.8 74 +28 +31 душно 1018.5 996.3 +16.0
09 15.06 С 3 10 км 8/8 1000 м
[Cu hum]
+25.6 +17.2 60 +30 +32 душно 1018.0 996.0
12 15.06 С 3 10 км 8/8 1000 м
[Cu hum]
+27.3 +15.8 49 +30 +33 душно 1016.6 994.8
15 15.06 С 3 17 км 5/5 1000 м
[Cu hum]
+27.4 +16.1 50 +31 +33 душно 1015.2 993.4
18 15.06 С 2 12 км 8/8 600 м
[Cb calv]
+24.9 +13.9 50 +27 +27 жарко 1014.8 992.8 +28.6
21 15.06 В 1 10 км 5/5 600 м
[Sc]
+21.8 +12.6 56 +24 +24 комфорт 1014.9 992.7
00 16.06 В 3 10 км 3/3 600 м
[Sc]
+19.9 +11.9 60 +22 +22 комфорт 1015.1 992.7
03 16.06 В 3 10 км 5/0
[Ci fib]
+18.2 +11.6 65 +19 +19 тепло 1014.2 991.7
06 16.06 В 3 10 км 9/9 1000 м
[Sc]
+20.5 +13.5 64 +23 +24 комфорт 1014.0 991.7 +18.0
09 16.06 В 2 10 км 9/0
[Ac As]
+23.4 +15.1 60 +28 +33 душно 1014.0 991.9
12 16.06 В 6 10 км 8/0
[Ci sp]
+26.5 +16.1 53 +30 +35 душно 1012.6 990.8
15 16.06 В 2
{14}
10 км гроза, ливневой дождь 9/9 1000 м
[Cb cap]
+20.2 +18.5 90 +24 +25 комфорт 1012.6 990.3
18 16.06 СЗ 2 7000 м дымка {гроза} 9/9 1000 м
[Sc]
+19.3 +18.3 94 +22 +22 комфорт 1013.9 991.5 +27.8 11
21 16.06 С 2 6000 м дымка 8/0
[Ac trans]
+17.8 +17.5 98 +18 +18 тепло 1014.3 991.7
00 17.06 З 1 5000 м дымка 6/0
[Ac trans]
+16.3 +16.3 100 +17 +17 тепло 1015.9 993.2
03 17.06 СЗ 2 2000 м дымка 9/9 600 м
[Sc]
+17.0 +17.0 100 +17 +17 тепло 1016.5 993.8
06 17.06 СЗ 4 10 км 6/3 1000 м
[Cu hum Ac trans]
+19.3 +15.2 77 +21 +23 комфорт 1016.8 994.3 +15.8
09 17.06 З 3 10 км 9/9 600 м
[Sc]
+19.4 +14.9 75 +21 +23 комфорт 1017.8 995.3
12 17.06 З 3 10 км 9/9 1000 м
[Sc]
+20.6 +13.6 64 +23 +25 комфорт 1018.1 995.7
15 17.06 З 3 10 км 9/9 1000 м
[Sc]
+20.0 +14.6 71 +22 +23 комфорт 1018.1 995.6
18 17.06 СЗ 2 10 км 9/9 1000 м
[Sc]
+19.8 +16.2 80 +23 +23 комфорт 1017.7 995.2 +20.9
21 17.06 З 2 8000 м дымка 4/0
[Ac trans]
+17.4 +15.8 90 +18 +18 тепло 1018.8 996.1
00 18.06 СЗ 1 8000 м дымка ясно +15.1 +14.5 96 +16 +16 тепло 1019.6 996.7
03 18.06 С 2 5000 м дымка ясно +14.6 +14.4 99 +14 +15 по сезону 1020.2 997.2
06 18.06 С 2 8000 м дымка 5/4 1000 м
[Cu hum Ci fib]
+19.5 +15.8 79 +22 +26 комфорт 1020.6 998.0 +14.3
09 18.06 С 3 15 км 6/5 1000 м
[Cu med, cong Ci fib]
+23.1 +13.5 55 +26 +33 жарко 1020.1 997.9
12 18.06 СЗ 3 10 км 5/3 1000 м
[Cu med, cong Ci fib]
+24.2 +11.7 46 +26 +34 жарко 1019.3 997.2
15 18.06 С 1 10 км 3/1 1000 м
[Cu hum Ci fib]
+25.6 +9.4 36 +26 +32 жарко 1018.1 996.1
18 18.06 СВ 2 18 км 3/0
[Ci]
+22.4 +11.4 50 +25 +25 комфорт 1017.8 995.5 +26.0
21 18.06 штиль 0 10 км ясно +15.5 +13.3 87 +15 +15 по сезону 1019.3 996.4
00 19.06 С 1 5000 м дымка 3/0
[Ci fib]
+13.7 +13.3 97 +14 +14 тепло 1019.4 996.3
03 19.06 штиль 0 8000 м дымка 8/0
[Ci fib]
+13.4 +12.6 95 +13 +13 по сезону 1019.3 996.2
06 19.06 В 1 10 км 8/0
[Ci fib]
+21.5 +11.9 54 +24 +30 комфорт 1018.2 995.9 +12.2
09 19.06 ЮВ 2 10 км 8/3 1000 м
[Cu hum Ci fib]
+25.3 +10.4 39 +26 +36 жарко 1017.7 995.7
12 19.06 В 2 10 км 8/3 1000 м
[Cu hum Cs]
+27.1 +9.7 34 +28 +36 жарко 1016.3 994.3
15 19.06 ЮВ 3 10 км 8/3 1000 м
[Cu hum Cs]
+26.5 +11.0 38 +27 +30 жарко 1014.9 993.1
18 19.06 В 2 10 км 6/0
[Ci fib]
+24.9 +11.9 44 +26 +27 жарко 1014.3 992.3 +27.7

 

Местоположение метеостанции Барановичи (Брестская область, Беларусь): широта 53.13 долгота 25.97 высота над уровнем моря 193 м.

В архиве по умолчанию представлена погода в Барановичах за последнюю неделю. Архивные данные за месяц целиком и за предыдущие месяцы, начиная с января 2011 года, Вы можете получить, выбрав интересующий диапазон дат из раскрывающегося списка и нажав кнопку "Ввод!".


*Определитесь, кто Вы:
робот инопланетянин человек

Внимание! Время в таблицах - всемирное. Для получения местного времени необходимо прибавить поправку, которая равна 3 ч.

Смотрите также архив погоды в соседних городах и на ближайших метеорологических станциях:

Погода в Ганцевичах (Брестская область, Беларусь) (53 км)
Погода в Новогрудке (Гродненская область, Беларусь) (53 км)
Погода в Ивацевичах (Брестская область, Беларусь) (63 км)
Погода в Столбцах (Минская область, Беларусь) (64 км)
Погода в Лиде (Гродненская область, Беларусь) (96 км)
Погода в Волковыске (Гродненская область, Беларусь) (101 км)
Погода в Полесской (Брестская область, Беларусь) (105 км)
Погода в Слуцке (Минская область, Беларусь) (106 км)
Погода в Пинске (Брестская область, Беларусь) (113 км)
Погода в Воложине (Минская область, Беларусь) (113 км)

Пояснения к столбцам:

Ветер - указаны скорость ветра в м/с - средняя за 10 мин, порывы в срок и между сроками (в фигурных скобках) и направление, откуда дует ветер: С - северный, СВ - северо-восточный, В - восточный, ЮВ - юго-восточный, Ю - южный, ЮЗ - юго-западный, З - западный, СЗ - северо-западный.
Видимость - горизонтальная дальность видимости в метрах или километрах. При видимости от 1 до 10 км при отсутствии осадков обычно наблюдается дымка, при ухудшении видимости до 1 км и менее - туман. В сухую погоду видимость может ухудшаться дымом, пылью или мглою.
Явления - указаны атмосферные явления, наблюдавшиеся в срок или в последний час перед сроком; фигурными скобками обозначены явления, наблюдавшиеся между сроками (за 1-3 часа до срока); квадратными скобками обозначены град или гололедные отложения с указанием их диаметра в мм.
Облачность - указаны через наклонную черту общая и нижняя облачность в баллах и высота нижней границы облаков в метрах; квадратными скобками обозначены формы облаков: Ci - перистые, Cs - перисто-слоистые, Cc - перисто-кучевые, Ac - высококучевые, As - высокослоистые, Sc - слоисто-кучевые, Ns - слоисто-дождевые, Cu - кучевые, Cb - кучево-дождевые. Подробнее классификацию облаков см. в Атласе облаков (PDF).
T - Температура воздуха - температура, измеренная на высоте 2 м над землей.
Td - Температура точки росы - температура, при понижении до которой содержащийся в воздухе водяной пар достигнет насыщения.
f - Относительная влажность воздуха - влажноcть воздуха, измеренная на высоте 2 м над землей.
Te - Эффективная температура - температура, которую ощущает одетый по сезону человек в тени. Характеристика душности погоды. При расчете учитывается влияние влажности воздуха и скорости ветра на теплоощущения человека.
Tes - Эффективная температура на солнце - температура, которую ощущает человек, с поправкой на солнечный нагрев. Характеристика знойности погоды. Зависит от высоты солнца над горизонтом, облачности и скорости ветра. Ночью, в пасмурную погоду, а также при ветре 12 м/с и более поправка равна нулю.
P - Атмосферное давление - приведенное к уровню моря атмосферное давление.
Po - Атмосферное давление - измеренное на уровне метеостанции атмосферное давление.
Tmin - Минимальная температура - минимум температуры воздуха на высоте 2 м над землей.
Tmax - Максимальная температура - максимум температуры воздуха на высоте 2 м над землей.
R - Количество осадков - Количество выпавших осадков за период времени, мм. При наведении курсора мыши на число - период времени, за который выпало указанное количество осадков.
R24 - Количество осадков - Количество выпавших осадков за 24 часа, мм.
S - Снежный покров - Высота снежного покрова, см. При наведении курсора мыши на число - состояние снежного покрова и степень покрытия местности в баллах.